Weather in Kirovsky

Russia / Belgorod Oblast     51°01′12″N   36°07′21″E
temp.,
°C
wind,
m/s
gust,
m/s
humid.,
%
clouds,
%
prec.,
mm/h
press.,
hPa
HPBL,
m
15 may, sat
sat1500:00+14ssw338859 0.6 100923
03:00+12ssw34903 0.6 101052
06:00+12ssw499339 0.0 1011203
09:00+17ssw58755 0.0 1012483
12:00+20ssw6863100 0.0 10121269
15:00+21ssw695692 0.1 10122215
18:00+19ssw387429 0.2 1012695
21:00+14ssw22870 0.2 101316
16 may, sun
sun1600:00+15s1182100 0.0 101311
03:00+15sse2380100 0.0 101343
06:00+14s228289 0.0 101427
09:00+19se11680 0.0 1014388
12:00+22se22535 0.0 10141600
15:00+23ese2348100 0.0 10131790
18:00+22ene236557 0.0 1012117
21:00+17ne347694 0.0 101258
17 may, mon
mon1700:00+15ene4109287 0.0 1010171
03:00+14ene4890100 0.0 1009124
06:00+15e41184100 0.0 1008217
09:00+20se61268100 0.0 1007461
12:00+22ese61464100 0.0 1007866
15:00+24se61062100 0.0 10061188
18:00+22sse386921 0.0 1005527
21:00+18ese4118660 0.3 1005194
18 may, tue
tue1800:00+16se4119099 0.1 1005209
03:00+16sse389791 1.3 1005189
06:00+16sse61098100 0.3 1005448
09:00+16sw61093100 0.8 1007688
12:00+18ssw578453 0.4 1008792
15:00+20ssw577060 1.9 10081270
18:00+19ssw59794 2.0 1007744
21:00+14ssw499459 3.8 1008188
19 may, wed
wed1900:00+13sse3994100 0.8 1008254
03:00+14ssw61295100 2.3 1007592
06:00+14ssw5995100 0.2 1008494
09:00+16sw688189 0.3 1009913
12:00+17ssw5775100 0.3 10101077
15:00+17ssw5781100 0.3 1011609
18:00+14ssw3597100 2.9 1012264
21:00+14e2397100 4.4 1011109